Location: Berg
(48.5667°N, 13.9833°E)
Time: 17:33:33
(UTC+00:00)

ERBS - Pass Details

Date: 09 April 2020
Orbit: 410 x 426 km, 57.0° (Epoch: 25 May)

Event Time Altitude Azimuth Distance (km) Brightness Sun altitude
Rises 18:33:44 0° 306° (NW) 2,392 7.9 -8.2°
Reaches altitude 10° 18:35:57 10° 316° (NW) 1,526 6.3 -8.5°
Maximum altitude 18:39:08 36° 24° (NNE) 702 3.4 -9.0°
Enters shadow 18:42:00 12° 91° (E) 1,409 4.3 -9.4°
